When you browse on this site, cookies collect data to enhance your experience and personalize the content and advertising you see.
Visit our Privacy Policy to learn more. By continuing to use the site, you agree to this use of cookies and data.
  • Em Portugal
  • Lista de países
  • Para 7 dias
  • Temperatura da água
  • Mapa do tempo
  • Widgets de tempo
  • user-avatar
    Iniciar Sessão

    Previsão horária em Pert

    Hoje, 22 Agosto, Quinta-feira

    Tempo Temperatura Precipitação Vento Pressão Humidade
    00:00 +14°C° 0 mm 3 m/s 763 mmHg 52%
    01:00 +14°C° 0 mm 4 m/s 763 mmHg 47%
    02:00 +13°C° 0 mm 4 m/s 762 mmHg 40%
    03:00 +13°C° 0 mm 4 m/s 762 mmHg 37%
    04:00 +13°C° 0 mm 4 m/s 762 mmHg 35%
    05:00 +13°C° 0 mm 4 m/s 762 mmHg 32%
    06:00 +13°C° 0 mm 4 m/s 762 mmHg 35%
    07:00 +13°C° 0 mm 4 m/s 762 mmHg 37%
    08:00 +13°C° 0 mm 4 m/s 762 mmHg 39%
    09:00 +15°C° 0 mm 4 m/s 761 mmHg 39%
    10:00 +18°C° 0 mm 4 m/s 761 mmHg 39%
    11:00 +20°C° 0 mm 5 m/s 761 mmHg 39%
    12:00 +21°C° 0 mm 5 m/s 760 mmHg 39%
    13:00 +22°C° 0 mm 5 m/s 760 mmHg 40%
    14:00 +22°C° 0 mm 6 m/s 759 mmHg 40%
    15:00 +21°C° 0 mm 6 m/s 759 mmHg 43%
    16:00 +21°C° 0 mm 6 m/s 759 mmHg 46%
    17:00 +20°C° 0 mm 6 m/s 759 mmHg 49%
    18:00 +19°C° 0.6 mm 6 m/s 759 mmHg 60%
    19:00 +17°C° 0.6 mm 6 m/s 759 mmHg 72%
    20:00 +16°C° 0.6 mm 6 m/s 759 mmHg 83%
    21:00 +16°C° 0.8 mm 6 m/s 759 mmHg 84%
    22:00 +15°C° 0.8 mm 6 m/s 760 mmHg 84%
    23:00 +14°C° 0.8 mm 6 m/s 760 mmHg 84%

    Amanhã, 23 Agosto, Sexta-feira

    Tempo Temperatura Precipitação Vento Pressão Humidade
    00:00 +14°C° 2.3 mm 6 m/s 760 mmHg 84%
    01:00 +13°C° 2.3 mm 6 m/s 760 mmHg 84%
    02:00 +13°C° 2.3 mm 6 m/s 760 mmHg 85%
    03:00 +13°C° 0.2 mm 5 m/s 761 mmHg 80%
    04:00 +12°C° 0.2 mm 5 m/s 761 mmHg 75%
    05:00 +12°C° 0.2 mm 4 m/s 762 mmHg 70%
    06:00 +12°C° 0.1 mm 5 m/s 762 mmHg 72%
    07:00 +12°C° 0.1 mm 5 m/s 763 mmHg 74%
    08:00 +12°C° 0.1 mm 5 m/s 763 mmHg 76%
    09:00 +12°C° 0.2 mm 5 m/s 764 mmHg 74%
    10:00 +11°C° 0.2 mm 6 m/s 764 mmHg 71%
    11:00 +11°C° 0.2 mm 6 m/s 765 mmHg 69%
    12:00 +13°C° 0 mm 6 m/s 765 mmHg 63%
    13:00 +13°C° 0 mm 6 m/s 764 mmHg 58%
    14:00 +14°C° 0 mm 6 m/s 764 mmHg 53%
    15:00 +13°C° 0 mm 5 m/s 765 mmHg 54%
    16:00 +13°C° 0 mm 5 m/s 765 mmHg 56%
    17:00 +12°C° 0 mm 4 m/s 766 mmHg 57%
    18:00 +11°C° 0 mm 4 m/s 766 mmHg 59%
    19:00 +11°C° 0 mm 4 m/s 767 mmHg 60%
    20:00 +10°C° 0 mm 3 m/s 767 mmHg 62%
    21:00 +9°C° 0 mm 3 m/s 768 mmHg 63%
    22:00 +9°C° 0 mm 3 m/s 768 mmHg 65%
    23:00 +8°C° 0 mm 2 m/s 769 mmHg 66%

    Depois de amanhã, 24 Agosto, Sábado

    Tempo Temperatura Precipitação Vento Pressão Humidade
    00:00 +8°C° 0 mm 2 m/s 768 mmHg 68%
    01:00 +8°C° 0 mm 3 m/s 768 mmHg 71%
    02:00 +7°C° 0 mm 3 m/s 768 mmHg 73%
    03:00 +7°C° 0 mm 3 m/s 768 mmHg 76%
    04:00 +7°C° 0 mm 2 m/s 769 mmHg 78%
    05:00 +7°C° 0 mm 2 m/s 769 mmHg 81%
    06:00 +7°C° 0 mm 3 m/s 769 mmHg 80%
    07:00 +7°C° 0 mm 3 m/s 769 mmHg 79%
    08:00 +8°C° 0 mm 3 m/s 769 mmHg 78%
    09:00 +10°C° 0 mm 3 m/s 769 mmHg 70%
    10:00 +11°C° 0 mm 3 m/s 769 mmHg 62%
    11:00 +13°C° 0 mm 3 m/s 769 mmHg 53%
    12:00 +14°C° 0 mm 3 m/s 768 mmHg 51%
    13:00 +16°C° 0 mm 2 m/s 768 mmHg 49%
    14:00 +16°C° 0 mm 2 m/s 767 mmHg 47%
    15:00 +16°C° 0 mm 2 m/s 767 mmHg 51%
    16:00 +16°C° 0 mm 2 m/s 767 mmHg 56%
    17:00 +15°C° 0 mm 2 m/s 767 mmHg 60%
    18:00 +14°C° 0 mm 2 m/s 767 mmHg 63%
    19:00 +13°C° 0 mm 2 m/s 768 mmHg 66%
    20:00 +12°C° 0 mm 2 m/s 768 mmHg 69%
    21:00 +11°C° 0 mm 3 m/s 768 mmHg 70%
    22:00 +10°C° 0 mm 3 m/s 768 mmHg 70%
    23:00 +10°C° 0 mm 3 m/s 768 mmHg 70%

    25 Agosto, Domingo

    Tempo Temperatura Precipitação Vento Pressão Humidade
    00:00 +10°C° 0 mm 3 m/s 767 mmHg 70%
    01:00 +10°C° 0 mm 3 m/s 767 mmHg 70%
    02:00 +10°C° 0 mm 4 m/s 767 mmHg 70%
    03:00 +9°C° 0 mm 3 m/s 767 mmHg 73%
    04:00 +9°C° 0 mm 3 m/s 767 mmHg 76%
    05:00 +9°C° 0 mm 3 m/s 767 mmHg 78%
    06:00 +9°C° 0 mm 3 m/s 767 mmHg 78%
    07:00 +9°C° 0 mm 3 m/s 767 mmHg 78%
    08:00 +9°C° 0 mm 2 m/s 767 mmHg 77%
    09:00 +12°C° 0 mm 2 m/s 767 mmHg 69%
    10:00 +14°C° 0 mm 2 m/s 767 mmHg 61%
    11:00 +16°C° 0 mm 1 m/s 767 mmHg 52%
    12:00 +17°C° 0 mm 2 m/s 766 mmHg 51%
    13:00 +17°C° 0 mm 2 m/s 766 mmHg 49%
    14:00 +18°C° 0 mm 2 m/s 765 mmHg 48%
    15:00 +17°C° 0 mm 3 m/s 765 mmHg 54%
    16:00 +17°C° 0 mm 3 m/s 765 mmHg 60%
    17:00 +15°C° 0 mm 4 m/s 765 mmHg 65%
    18:00 +14°C° 0 mm 3 m/s 766 mmHg 69%
    19:00 +13°C° 0 mm 3 m/s 766 mmHg 72%
    20:00 +12°C° 0 mm 3 m/s 767 mmHg 76%
    21:00 +12°C° 0 mm 3 m/s 767 mmHg 76%
    22:00 +11°C° 0 mm 3 m/s 767 mmHg 77%
    23:00 +12°C° 0 mm 2 m/s 767 mmHg 77%

    26 Agosto, Segunda-feira

    Tempo Temperatura Precipitação Vento Pressão Humidade
    00:00 +10°C° 0 mm 2 m/s 767 mmHg 78%
    01:00 +10°C° 0 mm 2 m/s 767 mmHg 78%
    02:00 +10°C° 0 mm 2 m/s 766 mmHg 79%
    03:00 +9°C° 0 mm 2 m/s 766 mmHg 78%
    04:00 +9°C° 0 mm 2 m/s 766 mmHg 78%
    05:00 +9°C° 0 mm 2 m/s 766 mmHg 78%
    06:00 +9°C° 0 mm 3 m/s 767 mmHg 75%
    07:00 +10°C° 0 mm 3 m/s 767 mmHg 73%
    08:00 +10°C° 0 mm 3 m/s 767 mmHg 70%
    09:00 +13°C° 0 mm 3 m/s 767 mmHg 62%
    10:00 +16°C° 0 mm 3 m/s 767 mmHg 54%
    11:00 +18°C° 0 mm 3 m/s 767 mmHg 46%
    12:00 +18°C° 0 mm 3 m/s 766 mmHg 45%
    13:00 +19°C° 0 mm 3 m/s 765 mmHg 45%
    14:00 +19°C° 0 mm 2 m/s 764 mmHg 44%
    15:00 +19°C° 0 mm 2 m/s 764 mmHg 48%
    16:00 +18°C° 0 mm 2 m/s 764 mmHg 52%
    17:00 +18°C° 0 mm 2 m/s 764 mmHg 56%
    18:00 +17°C° 0 mm 2 m/s 764 mmHg 58%
    19:00 +15°C° 0 mm 2 m/s 764 mmHg 60%
    20:00 +14°C° 0 mm 2 m/s 765 mmHg 63%
    21:00 +14°C° 0 mm 2 m/s 765 mmHg 63%
    22:00 +12°C° 0 mm 3 m/s 764 mmHg 63%
    23:00 +12°C° 0 mm 3 m/s 764 mmHg 63%

    27 Agosto, Terça-feira

    Tempo Temperatura Precipitação Vento Pressão Humidade
    00:00 +11°C° 0 mm 3 m/s 764 mmHg 63%
    01:00 +11°C° 0 mm 3 m/s 764 mmHg 62%
    02:00 +11°C° 0 mm 3 m/s 763 mmHg 62%
    03:00 +11°C° 0 mm 4 m/s 763 mmHg 60%
    04:00 +11°C° 0 mm 4 m/s 762 mmHg 59%
    05:00 +11°C° 0 mm 4 m/s 762 mmHg 57%
    06:00 +11°C° 0 mm 4 m/s 762 mmHg 57%
    07:00 +12°C° 0 mm 5 m/s 762 mmHg 57%
    08:00 +12°C° 0 mm 5 m/s 762 mmHg 56%
    09:00 +14°C° 0 mm 5 m/s 761 mmHg 55%
    10:00 +17°C° 0 mm 4 m/s 761 mmHg 53%
    11:00 +19°C° 0 mm 4 m/s 760 mmHg 52%
    12:00 +20°C° 0 mm 4 m/s 759 mmHg 52%
    13:00 +21°C° 0 mm 3 m/s 758 mmHg 53%
    14:00 +22°C° 0 mm 3 m/s 757 mmHg 53%
    15:00 +23°C° 0 mm 2 m/s 757 mmHg 56%
    16:00 +23°C° 0 mm 2 m/s 757 mmHg 60%
    17:00 +22°C° 0 mm 1 m/s 756 mmHg 63%
    18:00 +21°C° 0 mm 1 m/s 756 mmHg 66%
    19:00 +19°C° 0 mm 2 m/s 756 mmHg 70%
    20:00 +18°C° 0 mm 2 m/s 756 mmHg 73%
    21:00 +17°C° 0 mm 2 m/s 756 mmHg 74%
    22:00 +16°C° 0 mm 2 m/s 756 mmHg 75%
    23:00 +16°C° 0 mm 2 m/s 755 mmHg 76%
    Mostrar mais